TIANMU-1 13

Last updated on Thu Nov 21 2024 00:02:20 GMT+0000 (Coordinated Universal Time)

1 58647U 23205C 24325.54713672 .00009811 00000+0 48086-3 0 9990 2 58647 97.3930 346.7790 0008858 182.5831 177.5359 15.18305700 50198
UTC large
Height (km)
Speed (km/s)
/
Latitude / Longitude
Inclination (degrees)
Orbital Period (minutes)
Azimuth
Elevation
Range (km)
Doppler Factor

Next 0 passes for location: London (51.5072 / 0.1276)

Sorry there are no passes over London.